User: anonymous   Login
Location: *
(33.8649°S, 62.1526°E)
Time: 21:44:09
(UTC+00:00)
Language:

H-2A R/B - Orbit

View from above orbital plane
View from above orbital plane
View from above satellite
View from above satellite

Ground track
Ground track

The orbit data is extracted from the following two-line orbital elements,

1 39771U 14029F   21103.06101727  .00000353  00000-0  39092-4 0  9992
2 39771  98.1836 342.1628 0016530 345.2604  14.8130 14.93894635375384
Epoch (UTC): 13 April 2021 01:27:51
Eccentricity: 0.0016530
inclination: 98.1836°
perigee height: 574 km
apogee height: 597 km
right ascension of ascending node: 342.1628°
argument of perigee: 345.2604°
revolutions per day: 14.93894635
mean anomaly at epoch: 14.8130°
orbit number at epoch: 37538

The dashed part of the orbit path shows where the satellite is in the earth's shadow,  

DLR